GW4332 Weather Reports


time (UTC)temp
F
wind
direction
speed
knots
gust
knots
rain 1hr
in
rain 24hr
in
rain mn
in
humidity
%
barometer
mb
20260507235030 51 129 0.9 7.8 0.00 0.00 0.00 75 1017.9
20260507234029 51 123 0.9 6.1 0.00 0.00 0.00 74 1017.9
20260507233030 51 105 0.9 7.8 0.00 0.00 0.00 74 1017.9
20260507232029 52 88 1.7 8.7 0.00 0.00 0.00 73 1017.9
20260507231030 52 136 1.7 8.7 0.00 0.00 0.00 73 1017.9
20260507230030 52 267 0.9 11.3 0.00 0.00 0.00 72 1017.9
20260507225029 53 95 1.7 10.4 0.00 0.00 0.00 71 1017.9
20260507224030 53 139 1.7 10.4 0.00 0.00 0.00 71 1017.8
20260507223029 53 135 1.7 10.4 0.00 0.00 0.00 70 1017.9
20260507222030 54 89 3.5 11.3 0.00 0.00 0.00 69 1017.9
20260507221030 54 126 1.7 11.3 0.00 0.00 0.00 69 1017.8
20260507220029 55 93 5.2 11.3 0.00 0.00 0.00 69 1017.8
20260507215030 55 110 2.6 9.6 0.00 0.00 0.00 68 1017.8
20260507214029 55 107 3.5 8.7 0.00 0.00 0.00 68 1017.8
20260507213030 55 183 0.9 8.7 0.00 0.00 0.00 68 1017.8
20260507212030 55 132 2.6 10.4 0.00 0.00 0.00 68 1017.7
20260507211030 56 132 2.6 11.3 0.00 0.00 0.00 69 1017.7
20260507210029 56 124 1.7 11.3 0.00 0.00 0.00 70 1017.7
20260507205030 56 101 4.3 9.6 0.00 0.00 0.00 70 1017.7
20260507204029 55 107 4.3 8.7 0.00 0.00 0.00 70 1017.6
20260507203030 55 87 4.3 7.8 0.00 0.00 0.00 69 1017.5
20260507202029 55 80 5.2 8.7 0.00 0.00 0.00 69 1017.5
20260507201030 56 78 4.3 7.8 0.00 0.00 0.00 69 1017.2
20260507200029 56 69 4.3 10.4 0.00 0.00 0.00 68 1017.1
20260507195030 56 59 4.3 8.7 0.00 0.00 0.00 68 1017.1
20260507194029 56 66 4.3 7.8 0.00 0.00 0.00 67 1017.0
20260507193030 56 52 5.2 8.7 0.00 0.00 0.00 66 1016.9
20260507192030 57 45 5.2 9.6 0.00 0.00 0.00 66 1016.8
20260507191029 57 37 7.0 10.4 0.00 0.00 0.00 64 1016.8
20260507190029 57 45 7.0 10.4 0.00 0.00 0.00 62 1016.7
20260507185030 58 38 7.0 10.4 0.00 0.00 0.00 61 1016.6
20260507184030 58 43 7.0 10.4 0.00 0.00 0.00 61 1016.5
20260507183029 58 47 7.0 12.2 0.00 0.00 0.00 62 1016.4
20260507182030 58 36 5.2 9.6 0.00 0.00 0.00 66 1016.4
20260507181029 58 33 7.0 13.0 0.00 0.00 0.00 65 1016.3
20260507180030 58 38 5.2 11.3 0.00 0.00 0.00 65 1016.3
20260507175029 59 23 5.2 10.4 0.00 0.00 0.00 62 1016.3
20260507174030 59 28 7.0 12.2 0.00 0.00 0.00 60 1016.3
20260507173030 59 23 6.1 10.4 0.00 0.00 0.00 58 1016.1
20260507172029 59 357 6.1 11.3 0.00 0.00 0.00 59 1016.1
20260507171030 59 20 6.1 9.6 0.00 0.00 0.00 58 1016.3
20260507170029 60 353 7.8 11.3 0.00 0.00 0.00 59 1016.2
20260507165029 60 352 5.2 8.7 0.00 0.00 0.00 57 1016.1
20260507164030 60 344 7.0 9.6 0.00 0.00 0.00 57 1016.1
20260507163030 60 336 6.1 8.7 0.00 0.00 0.00 57 1016.1
20260507162029 60 349 6.1 9.6 0.00 0.00 0.00 57 1016.1
20260507161030 60 15 6.1 10.4 0.00 0.00 0.00 57 1016.0
20260507160029 60 352 5.2 10.4 0.00 0.00 0.00 57 1016.0
20260507155030 60 356 5.2 9.6 0.00 0.00 0.00 56 1016.0
20260507154030 60 348 7.0 11.3 0.00 0.00 0.00 58 1016.1
20260507153030 60 340 7.8 10.4 0.00 0.00 0.00 57 1016.1
20260507152029 60 343 7.8 10.4 0.00 0.00 0.00 57 1016.1
20260507151030 60 335 7.8 11.3 0.00 0.00 0.00 61 1016.0
20260507150030 60 327 9.6 13.0 0.00 0.00 0.00 58 1016.1
20260507145029 60 336 9.6 13.0 0.00 0.00 0.00 64 1016.0
20260507144030 60 327 9.6 12.2 0.00 0.00 0.00 66 1016.1
20260507143029 60 325 10.4 13.0 0.00 0.00 0.00 69 1016.2
20260507142030 59 323 10.4 12.2 0.00 0.00 0.00 68 1016.0
20260507141029 59 324 11.3 13.0 0.00 0.00 0.00 69 1016.1
20260507140030 59 320 11.3 13.9 0.00 0.00 0.00 70 1016.1
20260507135029 59 327 11.3 13.9 0.00 0.00 0.00 71 1016.1
20260507134030 59 324 11.3 13.9 0.00 0.00 0.00 72 1016.1
20260507133030 58 325 11.3 13.9 0.00 0.00 0.00 73 1016.2
20260507132030 58 318 10.4 13.0 0.00 0.00 0.00 73 1016.1
20260507131030 58 327 10.4 13.9 0.00 0.00 0.00 73 1016.0
20260507130030 58 320 10.4 13.0 0.00 0.00 0.00 74 1016.1
20260507125030 58 319 10.4 13.0 0.00 0.00 0.00 73 1016.1
20260507124030 57 317 11.3 13.9 0.00 0.00 0.00 74 1016.1
20260507123030 57 323 11.3 13.9 0.00 0.00 0.00 74 1016.2
20260507122029 56 322 11.3 13.0 0.00 0.00 0.00 75 1016.1
20260507121030 56 323 11.3 13.9 0.00 0.00 0.00 75 1016.1
20260507120030 56 323 10.4 12.2 0.00 0.00 0.00 74 1016.1
20260507115030 56 322 9.6 12.2 0.00 0.00 0.00 75 1016.1
20260507114029 55 329 9.6 13.0 0.00 0.00 0.00 75 1016.1
20260507113030 55 323 9.6 12.2 0.00 0.00 0.00 75 1016.1
20260507112029 55 324 10.4 12.2 0.00 0.00 0.00 76 1016.1
20260507111029 55 321 9.6 12.2 0.00 0.00 0.00 76 1016.1
20260507110030 55 320 9.6 12.2 0.00 0.00 0.00 74 1016.2
20260507105029 54 334 8.7 10.4 0.00 0.00 0.00 72 1016.1
20260507104030 54 339 7.8 10.4 0.00 0.00 0.00 72 1016.2
20260507103030 54 324 7.8 10.4 0.00 0.00 0.00 74 1016.3
20260507102031 53 320 7.8 10.4 0.00 0.00 0.00 75 1016.2
20260507101029 53 328 7.8 10.4 0.00 0.00 0.00 75 1016.1
20260507100030 53 334 7.8 10.4 0.00 0.00 0.00 75 1016.1
20260507095029 52 331 7.8 9.6 0.00 0.00 0.00 76 1016.0
20260507094030 52 337 7.0 10.4 0.00 0.00 0.00 77 1016.0
20260507093030 52 332 6.1 10.4 0.00 0.00 0.00 76 1015.9
20260507092029 51 349 5.2 9.6 0.00 0.00 0.00 77 1015.9
20260507091029 51 348 6.1 11.3 0.00 0.00 0.00 77 1015.9
20260507090030 51 343 6.1 10.4 0.00 0.00 0.00 78 1015.8
20260507085029 51 336 7.0 9.6 0.00 0.00 0.00 78 1015.7
20260507084030 51 347 5.2 8.7 0.00 0.00 0.00 78 1015.7
20260507083030 50 338 6.1 8.7 0.00 0.00 0.00 78 1015.7
20260507082029 50 325 6.1 9.6 0.00 0.00 0.00 78 1015.6
20260507081030 51 332 5.2 8.7 0.00 0.00 0.00 78 1015.6
20260507080030 51 348 4.3 8.7 0.00 0.00 0.00 77 1015.6
20260507075030 51 346 5.2 8.7 0.00 0.00 0.00 76 1015.5
20260507074029 51 21 5.2 8.7 0.00 0.00 0.00 75 1015.4
20260507073030 51 22 4.3 9.6 0.00 0.00 0.00 75 1015.3
20260507072029 51 34 6.1 10.4 0.00 0.00 0.00 75 1015.3
20260507071030 51 31 5.2 9.6 0.00 0.00 0.00 75 1015.2
20260507070030 50 33 5.2 9.6 0.00 0.00 0.00 74 1015.2
20260507065029 50 30 5.2 10.4 0.00 0.00 0.00 74 1015.2
20260507064030 50 22 6.1 11.3 0.00 0.00 0.00 73 1015.1
20260507063029 50 37 6.1 10.4 0.00 0.00 0.00 72 1015.1
20260507062030 50 46 6.1 11.3 0.00 0.00 0.00 71 1015.0
20260507061030 50 37 6.1 11.3 0.00 0.00 0.00 72 1015.0
20260507060029 50 41 6.1 10.4 0.00 0.00 0.00 73 1015.0
20260507055030 50 50 6.1 10.4 0.00 0.00 0.00 74 1014.8
20260507054029 50 49 5.2 10.4 0.00 0.00 0.00 75 1014.8
20260507053030 49 62 2.6 4.3 0.00 0.00 0.00 77 1014.8
20260507052030 49 69 2.6 5.2 0.00 0.00 0.00 78 1014.6
20260507051029 49 50 3.5 6.1 0.00 0.00 0.00 78 1014.6
20260507050030 48 40 5.2 9.6 0.00 0.00 0.00 78 1014.5
20260507045029 48 35 6.1 9.6 0.00 0.00 0.00 79 1014.4
20260507044030 48 34 6.1 9.6 0.00 0.00 0.00 79 1014.4
20260507043029 48 37 5.2 9.6 0.00 0.00 0.00 79 1014.4
20260507042030 48 26 5.2 10.4 0.00 0.00 0.00 80 1014.3
20260507041030 48 16 5.2 8.7 0.00 0.00 0.00 81 1014.1
20260507040029 48 22 4.3 8.7 0.00 0.00 0.00 81 1014.0
20260507035030 47 18 5.2 9.6 0.00 0.00 0.00 82 1014.1
20260507034029 47 29 5.2 7.8 0.00 0.00 0.00 82 1014.0
20260507033030 47 44 4.3 7.8 0.00 0.00 0.00 82 1014.0
20260507032030 47 53 3.5 4.3 0.00 0.00 0.00 81 1013.9
20260507031029 47 57 3.5 5.2 0.00 0.00 0.00 82 1013.9
20260507030030 47 73 2.6 3.5 0.00 0.00 0.00 82 1013.9
20260507025029 47 57 1.7 3.5 0.00 0.00 0.00 82 1013.9
20260507024030 48 55 2.6 7.0 0.00 0.00 0.00 82 1013.8
20260507023030 48 44 3.5 7.0 0.00 0.00 0.00 82 1013.8
20260507022029 48 40 3.5 6.1 0.00 0.00 0.00 81 1013.7
20260507021030 48 20 4.3 8.7 0.00 0.00 0.00 81 1013.7
20260507020030 48 33 4.3 8.7 0.00 0.00 0.00 81 1013.6
20260507015030 49 16 4.3 8.7 0.00 0.00 0.00 80 1013.6
20260507014030 49 20 5.2 9.6 0.00 0.00 0.00 80 1013.5
20260507013030 48 20 5.2 8.7 0.00 0.00 0.00 79 1013.5
20260507012029 48 34 3.5 7.8 0.00 0.00 0.00 78 1013.5
20260507011030 48 48 4.3 7.8 0.00 0.00 0.00 78 1013.4
20260507010030 48 33 5.2 9.6 0.00 0.00 0.00 78 1013.4
20260507005029 48 31 4.3 7.8 0.00 0.00 0.00 79 1013.5
20260507004030 48 40 5.2 7.8 0.00 0.00 0.00 79 1013.4
20260507003029 48 37 5.2 8.7 0.00 0.00 0.00 79 1013.4
20260507002030 48 47 5.2 9.6 0.00 0.00 0.00 79 1013.4
20260507001029 48 48 4.3 8.7 0.00 0.00 0.00 80 1013.3
20260507000030 48 54 5.2 11.3 0.00 0.00 0.00 80 1013.3